Probability
0 0 0 0 0 0 0 0 0 0 0 0 0 0 0 0 0 0 0 0 0 0 0 0 0 0 0 0 0 0 0 0 0 0 0 0 0 0 0 0 0 0 0
0 0 0 0 0 0 0 0 0 0 0 0 0 0 0 0 0 0 0 0 0 0 0 0 0 0 0 0 0 0 0 0 0 0 0 0 0 0 0 0 0 0 0
0 0 0 0 0 0 0 0 0 0 0 0 0 0 0 0 0 0 0 0 0 0 0 0 0 0 0 0 0 0 0 0 0 0 0 0 0 0 0 0 0 0 0
0 0 0 0 0 0 0 0 0 0 0 0 0 0 0 0 0 0 0 0 0 0 0 0 0 0 0 0 0 0 0 0 0 0 0 0 0 0 0 0 0 0 0
0 0 0 0 0 0 0 0 0 0 0 0 0 0 0 0 0 0 0 0 0 0 0 0 0 0 0 0 0 0 0 0 0 0 0 0 0 0 0 0 0 0 0
0 0 0 0 0 0 0 0 0 0 0 0 0 0 0 0 0 0 0 0 0 0 0 0 0 0 0 0 0 0 0 0 0 0 0 0 0 0 0 0 0 0 0
2 2 1 1 1 1 0 0 0 0 0 0 0 0 0 0 0 0 0 0 0 0 0 0 0 0 0 0 0 0 0 0 0 0 0 0 0 0 0 0 0 0 0
4 4 2 2 2 1 0 0 0 0 0 0 0 0 0 0 0 0 0 0 0 0 0 0 0 0 0 0 0 0 0 0 0 0 0 0 0 0 0 0 0 0 0
5 5 3 2 1 1 0 0 0 0 0 0 0 0 0 0 0 0 0 0 0 0 0 0 0 0 0 0 0 0 0 0 0 0 0 0 0 0 0 0 0 0 0
5 5 4 3 2 1 1 0 0 0 0 0 0 0 0 0 0 0 0 0 0 0 0 0 0 0 0 0 0 0 0 0 0 0 0 0 0 0 0 0 0 0 0
6 7 6 6 5 4 2 1 0 0 0 0 0 0 0 0 0 0 0 0 0 0 0 0 0 0 0 0 0 0 0 0 0 0 0 0 0 0 0 0 0 0 0
7 7 8 8 8 8 5 3 2 1 1 0 0 0 0 0 0 0 0 0 0 0 0 0 0 0 0 0 0 0 0 0 0 0 0 0 0 0 0 0 0 0 0
7 6 6 6 7 8 7 5 5 4 3 1 1 0 0 0 0 0 0 0 0 0 0 0 0 0 0 0 0 0 0 0 0 0 0 0 0 0 0 0 0 0 0
4 3 2 2 3 5 5 6 6 6 5 4 2 1 1 0 0 0 0 0 0 0 0 0 0 0 0 0 0 0 0 0 0 0 0 0 0 0 0 0 0 0 0
1 1 0 0 1 1 3 4 5 6 6 5 4 3 2 1 0 0 0 0 0 0 0 0 0 0 0 0 0 0 0 0 0 0 0 0 0 0 0 0 0 0 0
0 0 0 0 0 0 1 2 4 5 5 5 3 2 2 1 0 0 0 0 0 0 0 0 0 0 0 0 0 0 0 0 0 0 0 0 0 0 0 0 0 0 0
0 0 0 0 0 0 0 0 1 2 3 3 1 1 1 0 0 0 0 0 0 0 0 0 0 0 0 0 0 0 0 0 0 0 0 0 0 0 0 0 0 0 0
0 0 0 0 0 0 0 0 0 0 1 1 0 0 0 0 0 0 0 0 0 0 0 0 0 0 0 0 0 0 0 0 0 0 0 0 0 0 0 0 0 0 0
0 0 0 0 0 0 0 0 0 0 0 0 0 0 0 0 0 0 0 0 0 0 0 0 0 0 0 0 0 0 0 0 0 0 0 0 0 0 0 0 0 0 0
0 0 0 0 0 0 0 0 0 0 0 0 0 0 0 0 0 0 0 0 0 0 0 0 0 0 0 0 0 0 0 0 0 0 0 0 0 0 0 0 0 0 0
0 0 0 0 0 0 0 0 0 0 0 0 0 0 0 0 0 0 0 0 0 0 0 0 0 0 0 0 0 0 0 0 0 0 0 0 0 0 0 0 0 0 0
0 0 0 0 0 0 0 0 0 0 0 0 0 0 0 0 0 0 0 0 0 0 0 0 0 0 0 0 0 0 0 0 0 0 0 0 0 0 0 0 0 0 0
0 0 0 0 0 0 0 0 0 0 0 0 0 0 0 0 0 0 0 0 0 0 0 0 0 0 0 0 0 0 0 0 0 0 0 0 0 0 0 0 0 0 0
0 0 0 0 0 0 0 0 0 0 0 0 0 0 0 0 0 0 0 0 0 0 0 0 0 0 0 0 0 0 0 0 0 0 0 0 0 0 0 0 0 0 0
0 0 0 0 0 0 0 0 0 0 0 0 0 0 0 0 0 0 0 0 0 0 0 0 0 0 0 0 0 0 0 0 0 0 0 0 0 0 0 0 0 0 0
0 0 0 0 0 0 0 0 0 0 0 0 0 0 0 0 0 0 0 0 0 0 0 0 0 0 0 0 0 0 0 0 0 0 0 0 0 0 0 0 0 0 0
Wind_Speed
4 4 4 5 5 4 5 5 4 5 4 4 3 3 3 3 5 6 4 9 9 9 9 8 8 7 7 7 7 6 6 6 6 6 7 7 7 7 8 8 9 9 9
5 4 4 5 5 4 5 4 5 4 3 3 3 3 3 3 4 6 6 6 9 9 9 9 8 7 7 6 6 6 5 5 5 5 5 5 6 6 6 7 7 8 9
6 5 4 4 4 4 5 4 4 3 3 3 3 3 3 4 4 6 7 5 5 7 9 10 9 8 7 6 6 5 4 3 3 3 3 4 4 5 6 6 7 8 8
6 5 4 4 5 4 4 4 3 3 3 3 2 2 2 2 4 5 6 6 5 5 6 10 10 9 8 7 6 5 4 3 2 1 2 3 4 5 6 7 7 8 9
7 5 5 4 5 4 4 4 4 4 3 3 3 3 3 3 3 3 5 6 6 7 5 8 10 10 9 8 7 6 4 3 2 1 2 3 4 6 7 8 8 9 10
7 6 5 6 6 4 5 4 5 4 4 4 3 3 3 3 3 3 4 4 5 7 7 7 6 6 10 10 8 7 5 4 3 3 3 4 5 6 7 9 9 10 11
7 7 5 6 6 5 6 6 5 5 4 3 3 1 2 2 4 4 4 3 5 6 7 8 6 5 5 11 10 8 6 5 4 4 4 5 6 7 8 10 11 12 12
7 7 7 6 6 5 6 7 6 5 4 5 4 3 2 3 4 5 4 4 5 5 6 7 7 7 6 4 7 10 7 6 5 5 5 6 7 8 10 11 12 13 13
7 7 8 7 7 7 7 8 8 8 6 5 5 5 5 6 3 3 5 5 4 4 4 4 6 6 7 5 5 8 8 7 6 6 7 7 8 10 11 12 13 14 15
8 8 8 8 8 7 7 8 8 7 7 5 4 4 3 3 4 2 2 3 4 3 4 3 4 4 5 5 6 9 9 7 7 7 8 9 10 11 13 13 14 15 15
8 8 8 8 8 7 8 8 8 8 7 7 5 4 4 2 2 4 3 3 2 2 2 3 3 3 4 4 4 6 9 8 8 8 9 10 12 13 14 15 15 16 16
4 7 7 7 7 7 8 8 8 9 8 8 6 5 5 4 5 5 4 3 3 2 1 1 2 2 3 3 5 8 9 8 8 9 10 12 13 14 15 16 17 17 17
2 4 5 5 5 6 6 6 6 7 7 7 7 6 5 4 3 3 4 3 3 1 1 0 1 1 1 2 2 7 8 8 9 10 12 13 14 14 15 17 18 18 18
2 2 3 3 4 4 4 5 4 5 4 5 6 5 3 3 3 3 3 4 3 1 1 2 1 1 1 1 3 6 4 8 10 11 13 14 15 16 17 17 18 18 19
1 1 1 1 1 2 2 3 3 3 3 3 3 3 2 2 2 2 2 3 5 5 5 4 2 3 3 2 4 3 3 8 11 13 14 15 16 17 17 18 18 18 19
2 1 1 0 0 1 1 2 2 2 3 2 2 4 4 3 3 2 2 2 1 3 3 2 2 2 3 3 6 4 4 10 13 14 15 16 17 17 17 18 18 19 19
3 2 2 1 1 1 2 2 2 3 4 4 4 5 5 5 4 3 3 3 2 2 2 1 1 1 2 3 3 3 4 5 5 14 16 17 17 17 18 18 19 19 19
5 5 5 5 5 5 4 4 4 5 5 5 5 6 6 5 5 4 3 3 3 2 2 2 1 1 2 3 3 4 4 5 4 11 16 17 17 17 18 18 19 19 19
7 7 7 7 7 7 7 7 7 7 6 6 6 6 6 6 5 4 4 3 2 2 1 2 1 1 1 2 2 3 4 4 5 8 13 15 16 17 17 18 19 19 19
7 8 8 8 7 7 7 7 8 8 8 7 7 6 6 5 5 4 3 3 2 2 1 1 1 1 1 2 2 2 3 2 4 5 9 11 14 16 17 18 19 19 20
8 7 8 8 7 7 7 8 8 8 8 8 7 6 6 6 6 4 3 2 2 1 1 0 0 0 1 1 2 2 2 3 4 5 4 4 5 5 8 14 18 19 20
8 8 8 8 8 7 11 13 10 7 7 7 7 6 5 5 5 5 4 2 1 1 1 0 1 1 2 2 2 1 2 2 4 3 3 6 5 7 7 7 15 20 20
8 8 8 8 8 9 13 13 13 8 7 6 5 4 3 4 4 3 2 2 2 3 3 2 2 3 3 2 2 2 3 4 6 5 5 8 6 8 7 10 19 21 21
6 7 7 7 7 9 13 12 12 7 6 5 4 4 3 3 2 2 1 1 2 3 4 3 3 4 4 3 3 4 4 5 6 5 4 7 6 6 8 6 16 21 21
6 6 5 6 7 8 11 10 9 4 4 4 3 3 3 2 1 2 2 2 3 4 6 6 7 8 11 12 9 3 3 4 6 5 3 4 4 4 5 7 10 16 17
5 5 5 5 6 5 8 9 8 3 3 2 1 1 1 1 3 4 2 2 3 3 3 4 6 8 7 8 11 4 3 3 4 5 2 2 3 4 6 4 4 5 8
Wind_Direction
163 167 173 170 179 180 175 184 203 199 200 196 199 184 157 152 131 128 136 144 147 152 153 150 146 140 132 122 111 100 91 81 70 61 54 47 41 34 29 27 23 18 15
172 173 181 173 181 180 175 186 200 191 192 192 189 172 160 156 141 137 142 147 155 161 167 167 163 157 149 141 131 119 103 86 71 57 45 36 28 21 14 13 8 4 2
177 174 183 177 180 181 180 183 197 189 184 184 188 184 177 176 160 146 151 153 157 169 178 180 176 172 166 159 150 141 126 105 80 52 33 19 8 -0 354 353 349 347 345
183 177 184 185 182 179 180 179 185 180 180 177 184 195 178 164 174 167 159 160 162 169 183 187 183 181 180 178 173 164 153 142 124 50 4 351 345 339 337 335 334 333 332
191 181 188 190 185 182 183 183 183 176 180 187 190 191 186 176 192 186 173 167 165 164 168 185 179 182 186 188 189 185 179 179 194 248 306 322 325 324 324 323 324 323 323
196 189 192 196 189 185 186 182 184 187 181 180 185 186 194 188 189 198 197 177 166 164 164 168 167 179 186 192 197 198 199 205 218 246 280 298 308 312 313 314 315 315 315
200 197 197 199 196 194 191 185 179 190 194 165 146 196 261 221 202 203 200 189 181 174 166 168 171 170 186 198 200 203 207 215 229 252 276 290 300 306 308 310 310 311 310
208 206 204 201 199 198 196 193 185 182 190 174 156 146 220 258 251 215 197 201 193 179 181 178 175 172 174 176 196 199 204 216 233 253 273 287 296 301 304 306 306 306 306
222 215 212 208 205 202 205 202 193 187 193 195 179 167 178 211 217 226 211 199 192 182 186 183 180 173 168 164 174 193 195 212 236 257 273 285 294 298 300 302 303 304 305
222 221 217 213 212 209 210 208 203 198 185 193 207 217 207 166 163 201 258 213 188 179 176 180 175 169 158 147 163 178 190 209 237 260 277 288 295 298 299 301 302 303 304
220 222 219 216 216 215 214 211 208 206 200 195 189 189 216 229 191 162 202 223 216 197 170 164 155 154 155 146 149 177 194 213 241 264 279 290 296 299 301 302 303 303 302
225 224 224 222 221 217 216 216 213 211 211 206 200 188 180 187 198 192 187 181 202 214 176 152 159 156 160 155 174 191 203 220 250 268 281 290 295 299 302 303 302 301 300
239 231 225 226 225 223 221 216 214 216 213 209 207 204 199 198 171 178 185 170 160 155 132 101 92 114 144 135 160 191 212 230 253 270 282 289 295 300 301 300 299 299 298
252 252 234 231 228 222 221 216 216 216 209 210 209 198 187 185 172 167 170 160 155 168 199 207 91 129 126 125 179 196 225 241 258 272 281 289 295 297 296 296 295 295 295
298 296 275 240 230 218 213 204 208 204 192 195 187 172 155 131 124 133 136 160 168 188 211 197 190 188 176 165 193 196 220 254 266 274 281 286 289 289 290 290 291 291 291
344 347 331 202 175 167 162 164 163 155 147 144 135 134 125 114 103 96 104 101 137 174 178 161 183 173 178 187 210 214 233 260 270 278 282 284 285 286 288 289 289 289 288
23 37 44 60 69 69 88 106 119 126 133 121 113 120 117 113 113 102 97 101 91 106 152 134 131 157 171 191 218 227 240 250 266 277 282 284 285 286 286 287 287 287 287
39 44 51 59 62 61 63 77 89 93 104 109 107 110 111 109 105 101 100 95 95 89 127 143 147 179 204 211 218 241 253 257 253 275 282 285 286 286 287 287 286 286 285
50 52 57 60 61 64 67 70 77 82 84 90 99 106 108 110 106 101 99 98 97 96 100 132 153 185 228 229 233 251 256 262 267 278 286 288 290 290 288 288 288 287 286
58 59 62 63 65 68 71 76 81 83 84 83 85 93 99 105 110 113 111 118 125 120 124 139 172 216 247 251 235 249 272 271 282 289 287 288 289 294 295 295 294 292 289
64 65 67 67 66 69 76 84 86 89 89 86 80 80 87 100 111 111 109 118 114 112 125 153 196 259 271 284 267 255 274 295 290 275 277 289 298 291 291 291 292 288 286
64 67 68 71 70 74 89 91 91 87 89 91 89 84 92 94 100 97 108 126 144 153 147 189 246 253 266 273 279 290 291 309 297 296 322 294 285 282 279 271 282 287 288
69 70 71 74 75 82 88 89 90 89 88 89 92 91 85 83 75 60 43 22 331 296 272 246 238 252 267 267 280 287 273 265 265 275 295 287 276 276 274 281 289 292 294
74 75 75 78 81 83 86 87 87 85 85 82 79 79 80 73 75 61 17 345 300 293 282 263 232 247 258 255 241 247 254 268 271 270 260 275 279 274 280 277 288 292 294
80 78 79 83 85 85 84 83 78 79 80 77 74 74 76 62 19 347 339 310 303 298 299 298 283 281 281 283 278 266 268 282 291 290 254 256 277 290 282 277 282 290 295
93 92 83 79 84 86 83 77 70 73 74 69 63 72 74 25 330 326 328 319 308 302 323 325 309 301 295 290 290 264 221 241 274 289 269 281 291 321 304 278 275 286 292